This demonstration page uses our WeatherBlox Daily Observations layout. Learn more.

Left ArrowRight Arrow

Hourly Observations for February 9, 2019

Temp ( °F °C ) Dew Point ( °F °C ) Humidity (%) Winds ( mph kmh ) Pressure ( in mb ) Visibility ( mi km ) Precip ( " mm )
12:53 am 00:53 Clear 39 3.9 22 -5.6 50 50 NNW 13 20 30.50 1033 10 16 0.00 0.00
1:53 am 01:53 Clear 39 3.9 22 -5.6 50 50 NNW 6 9 30.48 1032 10 16 0.00 0.00
2:53 am 02:53 Clear 39 3.9 22 -5.6 50 50 NW 8 13 30.48 1032 10 16 0.00 0.00
3:53 am 03:53 Clear 38 3.3 22 -5.6 52 52 N 8 13 30.49 1032 10 16 0.00 0.00
4:53 am 04:53 Clear 38 3.3 22 -5.6 52 52 N 8 13 30.50 1033 10 16 0.00 0.00
5:53 am 05:53 Clear 37 2.8 23 -5 57 57 Calm 30.53 1034 10 16 0.00 0.00
6:53 am 06:53 Mostly Cloudy 37 2.8 24 -4.4 59 59 NW 7 11 30.54 1034 10 16 0.00 0.00
7:53 am 07:53 Cloudy 37 2.8 24 -4.4 59 59 NNW 6 9 30.57 1035 10 16 0.00 0.00
8:53 am 08:53 Cloudy 38 3.3 26 -3.3 62 62 N 6 9 30.58 1036 10 16 0.00 0.00
9:53 am 09:53 Partly Cloudy 40 4.4 25 -3.9 55 55 NW 5 7 30.63 1037 10 16 0.00 0.00
10:53 am 10:53 Cloudy 43 6.1 25 -3.9 49 49 NNW 7 11 30.63 1037 10 16 0.00 0.00
11:53 am 11:53 Cloudy 45 7.2 27 -2.8 49 49 N 5 7 30.60 1036 10 16 0.00 0.03
12:53 pm 12:53 Cloudy 48 8.9 28 -2.2 46 46 NNE 6 9 30.58 1036 10 16 0.00 0.00
1:53 pm 13:53 Cloudy 51 10.6 26 -3.3 38 38 ENE 9 15 30.56 1035 10 16 0.00 0.00
2:53 pm 14:53 Cloudy 54 12.2 21 -6.1 28 28 ENE 10 17 30.54 1034 10 16 0.00 0.00
3:53 pm 15:53 Cloudy 55 12.8 16 -8.9 21 21 E 10 17 30.53 1034 10 16 0.00 0.00
4:53 pm 16:53 Cloudy 54 12.2 18 -7.8 24 24 E 12 19 30.52 1034 10 16 0.00 0.00
5:53 pm 17:53 Cloudy 53 11.7 19 -7.2 26 26 ENE 8 13 30.53 1034 10 16 0.00 0.00
6:53 pm 18:53 Cloudy 52 11.1 19 -7.2 27 27 ENE 9 15 30.54 1034 10 16 0.00 0.00
7:53 pm 19:53 Cloudy 51 10.6 20 -6.7 29 29 E 10 17 30.55 1035 10 16 0.00 0.00
8:53 pm 20:53 Clear 49 9.4 21 -6.1 33 33 E 5 7 30.56 1035 10 16 0.00 0.00
9:53 pm 21:53 Clear 49 9.4 20 -6.7 32 32 E 8 13 30.55 1035 10 16 0.00 0.00
10:53 pm 22:53 Clear 48 8.9 18 -7.8 30 30 E 9 15 30.55 1035 10 16 0.00 0.00
11:53 pm 23:53 Clear 46 7.8 18 -7.8 32 32 ENE 8 13 30.55 1034 10 16 0.00 0.00

Powered by AerisWeather